EW0349 Weather Reports


time (UTC)temp
F
wind
direction
speed
knots
gust
knots
rain 1hr
in
rain 24hr
in
rain mn
in
humidity
%
barometer
mb
20260906224540 59 250 0.0 3.5 0.00 0.52 0.52 100 1017.7
20260906223043 57 213 0.9 3.5 0.00 0.52 0.52 100 1017.7
20260906221531 57 196 0.9 3.5 0.00 0.52 0.52 100 1017.7
20260906220036 57 196 0.9 3.5 0.00 0.52 0.52 100 1017.7
20260906214528 57 202 0.9 3.5 0.00 0.52 0.52 100 1017.7
20260906213019 57 151 0.0 2.6 0.00 0.52 0.52 100 1017.5
20260906211512 56 202 0.0 2.6 0.00 0.52 0.52 100 1017.4
20260906210008 56 202 0.9 3.5 0.00 0.52 0.52 100 1017.4
20260906204504 56 195 0.0 3.5 0.00 0.52 0.52 100 1017.3
20260906203100 56 246 0.0 1.7 0.00 0.52 0.52 100 1017.2
20260906201603 56 236 0.0 3.5 0.01 0.52 0.52 100 1017.1
20260906200055 55 266 0.0 2.6 0.03 0.52 0.52 100 1017.1
20260906194546 55 269 0.0 1.7 0.04 0.52 0.52 100 1017.2
20260906193042 55 218 0.9 2.6 0.04 0.52 0.52 100 1017.0
20260906191537 55 208 0.9 2.6 0.04 0.51 0.51 100 1017.1
20260906190039 55 209 0.0 0.9 0.03 0.49 0.49 100 1017.2
20260906184535 55 209 0.0 2.6 0.03 0.48 0.48 100 1017.1
20260906183033 55 175 0.0 3.5 0.05 0.48 0.48 100 1017.0
20260906181522 55 204 0.0 3.5 0.06 0.47 0.47 100 1016.8
20260906180014 55 232 0.0 1.7 0.07 0.46 0.46 100 1016.7
20260906174510 55 232 0.0 0.9 0.08 0.45 0.45 100 1016.7
20260906173006 54 232 0.0 1.7 0.07 0.43 0.43 100 1016.5
20260906171502 54 250 0.0 1.7 0.06 0.41 0.41 100 1016.4
20260906164553 54 205 0.0 1.7 0.05 0.37 0.37 100 1016.3
20260906163049 54 207 0.0 1.7 0.06 0.36 0.36 100 1016.2
20260906161544 54 194 0.0 2.6 0.06 0.35 0.35 100 1016.2
20260906160039 54 196 0.0 2.6 0.05 0.33 0.33 100 1016.1
20260906154536 54 230 0.0 0.9 0.05 0.32 0.32 100 1016.1
20260906153031 54 230 0.0 1.7 0.04 0.30 0.30 100 1016.1
20260906151526 54 230 0.0 2.6 0.04 0.28 0.28 100 1016.0
20260906150030 54 220 0.0 1.7 0.15 0.28 0.28 100 1015.9
20260906144518 54 220 0.0 0.9 0.15 0.28 0.27 100 1015.9
20260906143017 54 220 0.0 1.7 0.14 0.27 0.26 100 1015.8
20260906141508 54 220 0.0 1.7 0.14 0.26 0.25 100 1015.7
20260906140013 54 220 0.0 0.0 0.01 0.13 0.12 100 1015.6
20260906134600 54 220 0.0 2.6 0.01 0.13 0.12 100 1015.4
20260906133110 54 302 0.0 0.9 0.01 0.13 0.12 100 1015.0
20260906131559 54 302 0.0 1.7 0.00 0.12 0.11 100 1015.0
20260906130059 54 302 0.0 0.9 0.01 0.12 0.11 100 1015.0
20260906124544 54 302 0.0 1.7 0.01 0.12 0.11 100 1015.1
20260906123042 54 302 0.0 0.9 0.01 0.12 0.11 100 1015.3
20260906121534 54 302 0.0 0.0 0.01 0.12 0.11 100 1015.4
20260906120028 54 302 0.0 0.0 0.03 0.11 0.10 100 1015.2
20260906114528 54 302 0.0 0.0 0.09 0.11 0.10 100 1015.1
20260906113024 55 302 0.0 0.0 0.10 0.11 0.10 100 1015.1
20260906111516 55 302 0.0 0.0 0.10 0.11 0.10 100 1015.3
20260906110011 55 302 0.0 0.9 0.07 0.08 0.07 100 1015.2
20260906104507 55 302 0.0 0.0 0.00 0.01 0.00 100 1015.3
20260906103008 55 302 0.0 0.0 0.00 0.01 0.00 100 1015.1
20260906101558 55 302 0.0 0.9 0.00 0.01 0.00 100 1014.9
20260906100054 54 302 0.0 1.7 0.00 0.01 0.00 100 1014.8
20260906094604 54 302 0.0 0.0 0.00 0.01 0.00 100 1015.0
20260906093056 54 302 0.0 0.0 0.00 0.01 0.00 100 1014.8
20260906091540 55 302 0.0 0.0 0.00 0.01 0.00 100 1014.8
20260906090105 55 302 0.0 0.0 0.00 0.01 0.00 100 1014.8
20260906084535 55 302 0.0 0.0 0.00 0.01 0.00 100 1014.9
20260906083036 55 302 0.0 0.0 0.00 0.01 0.00 100 1014.9
20260906081523 55 302 0.0 0.0 0.00 0.01 0.00 100 1014.8
20260906080019 56 302 0.0 0.0 0.00 0.01 0.00 5 1014.8
20260906074531 56 302 0.0 0.0 0.00 0.01 0.00 9 1014.9
20260906073014 56 302 0.0 0.0 0.00 0.01 0.00 10 1015.0
20260906071510 56 302 0.0 0.0 0.00 0.01 0.00 12 1015.1
20260906070008 56 302 0.0 0.9 0.00 0.01 0.01 13 1015.0
20260906064503 56 302 0.0 0.9 0.00 0.01 0.01 13 1015.0
20260906063100 56 302 0.0 0.9 0.00 0.01 0.01 13 1014.8
20260906061604 56 302 0.0 0.0 0.00 0.01 0.01 17 1015.0
20260906060050 56 302 0.0 0.0 0.00 0.01 0.01 22 1015.1
20260906054548 57 302 0.0 0.0 0.00 0.01 0.01 28 1015.2
20260906053052 57 302 0.0 2.6 0.00 0.01 0.01 31 1015.2
20260906051539 57 277 0.0 2.6 0.00 0.01 0.01 32 1015.2
20260906050033 58 323 0.0 1.7 0.00 0.01 0.01 38 1015.2
20260906044528 58 297 0.0 1.7 0.00 0.01 0.01 39 1015.3
20260906043025 58 267 0.0 1.7 0.00 0.01 0.01 40 1015.4
20260906041533 58 266 0.0 3.5 0.00 0.01 0.01 41 1015.5
20260906040015 58 281 0.0 1.7 0.00 0.01 0.01 43 1015.4
20260906034514 58 281 0.0 2.6 0.00 0.01 0.01 45 1015.3
20260906033007 59 281 0.0 1.7 0.00 0.01 0.01 46 1015.2
20260906031502 60 275 0.0 2.6 0.00 0.01 0.01 48 1015.1
20260906030058 60 272 0.0 2.6 0.00 0.01 0.01 54 1015.1
20260906024609 61 272 0.0 2.6 0.00 0.01 0.01 58 1015.1
20260906023100 62 266 0.0 2.6 0.00 0.01 0.01 60 1015.2
20260906021545 62 266 0.0 4.3 0.00 0.01 0.01 61 1015.2
20260906020040 63 276 0.0 3.5 0.00 0.01 0.01 61 1015.0
20260906014545 64 295 0.0 3.5 0.00 0.01 0.01 60 1015.1
20260906013032 65 300 0.0 4.3 0.00 0.01 0.01 59 1015.1
20260906011527 66 290 1.7 5.2 0.00 0.01 0.01 59 1015.1
20260906010052 66 284 0.0 1.7 0.00 0.01 0.01 60 1015.1
20260906004518 66 284 0.0 3.5 0.00 0.01 0.01 59 1015.2
20260906003015 67 286 0.0 2.6 0.00 0.01 0.01 56 1015.1
20260906001510 67 291 0.0 4.3 0.00 0.01 0.01 58 1015.0
20260906000006 67 286 2.6 4.3 0.00 0.01 0.01 55 1014.9
20260905234502 67 279 0.0 4.3 0.00 0.01 0.01 56 1014.9
20260905233057 67 260 1.7 4.3 0.00 0.01 0.01 56 1015.0
20260905231552 67 296 0.0 2.6 0.00 0.01 0.01 57 1015.2
20260905230050 68 204 0.0 3.5 0.00 0.01 0.01 56 1015.3